Peotone Weather
Peotone-Weather Station Historical Data
Daily Summary for January 14, 2019 Units:  English    Metric   Both
Daily Weekly Monthly Yearly Custom
  High: Low: Average:
Temperature: 66 °F 40 °F 51.2 °F
Dew Point: 56 °F 33 °F 44.1 °F
Humidity: 86% 54% 77%
Wind Speed: 29mph 6mph 15.5mph
Wind Gust: 48mph - -
Wind- - South
Pressure: 29.70 in 29.31 in -
Precipitation: 0.26 in    
Historical Graphs
 
 
Tabular Data for January 14, 2019
Time Temperature Dew Point Pressure Wind Wind Speed Wind Gust Humidity Rainfall Rate (Hourly) solar
00:04 49 °F 45 °F 29.70 in ESE 7 mph 10 mph 83% 0.16 in 0 W/m2
00:09 49 °F 45 °F 29.69 in ESE 8 mph 15 mph 83% 0.16 in 0 W/m2
00:14 49 °F 45 °F 29.68 in ESE 8 mph 15 mph 84% 0.16 in 0 W/m2
00:19 49 °F 44 °F 29.67 in ESE 8 mph 13 mph 84% 0.15 in 0 W/m2
00:24 49 °F 44 °F 29.66 in ESE 8 mph 13 mph 84% 0.14 in 0 W/m2
00:29 49 °F 44 °F 29.65 in ESE 9 mph 13 mph 84% 0.13 in 0 W/m2
00:34 49 °F 44 °F 29.63 in ESE 10 mph 16 mph 84% 0.11 in 0 W/m2
00:39 49 °F 44 °F 29.64 in ESE 9 mph 16 mph 84% 0.10 in 0 W/m2
00:44 49 °F 44 °F 29.64 in ESE 8 mph 16 mph 84% 0.09 in 0 W/m2
00:49 49 °F 44 °F 29.64 in ESE 9 mph 15 mph 84% 0.08 in 0 W/m2
00:54 49 °F 44 °F 29.64 in SE 10 mph 17 mph 84% 0.07 in 0 W/m2
00:59 49 °F 44 °F 29.63 in SE 10 mph 18 mph 84% 0.06 in 0 W/m2
01:04 49 °F 44 °F 29.63 in SE 8 mph 18 mph 84% 0.05 in 0 W/m2
01:09 49 °F 44 °F 29.63 in SE 8 mph 14 mph 84% 0.03 in 0 W/m2
01:14 49 °F 44 °F 29.63 in SE 8 mph 14 mph 84% 0.02 in 0 W/m2
01:19 49 °F 44 °F 29.63 in SE 9 mph 16 mph 84% 0.00 in 0 W/m2
01:24 49 °F 44 °F 29.63 in ESE 12 mph 16 mph 84% 0.00 in 0 W/m2
01:29 49 °F 44 °F 29.61 in ESE 9 mph 16 mph 84% 0.00 in 0 W/m2
01:34 49 °F 44 °F 29.61 in SE 9 mph 15 mph 84% 0.00 in 0 W/m2
01:39 49 °F 44 °F 29.62 in SE 10 mph 15 mph 84% 0.00 in 0 W/m2
01:44 49 °F 44 °F 29.62 in SE 9 mph 16 mph 84% 0.00 in 0 W/m2
01:49 49 °F 45 °F 29.62 in SE 8 mph 16 mph 85% 0.00 in 0 W/m2
01:54 49 °F 45 °F 29.62 in SE 8 mph 16 mph 85% 0.00 in 0 W/m2
01:59 50 °F 45 °F 29.62 in SSE 10 mph 16 mph 85% 0.00 in 0 W/m2
02:04 50 °F 45 °F 29.62 in SSE 8 mph 16 mph 85% 0.00 in 0 W/m2
02:09 50 °F 46 °F 29.62 in SE 8 mph 16 mph 85% 0.00 in 0 W/m2
02:14 50 °F 46 °F 29.62 in SE 7 mph 14 mph 85% 0.00 in 0 W/m2
02:19 50 °F 46 °F 29.62 in SE 8 mph 14 mph 85% 0.00 in 0 W/m2
02:24 50 °F 46 °F 29.62 in SE 6 mph 14 mph 85% 0.00 in 0 W/m2
02:29 50 °F 46 °F 29.61 in ESE 8 mph 14 mph 85% 0.00 in 0 W/m2
02:34 50 °F 46 °F 29.61 in ESE 9 mph 16 mph 85% 0.00 in 0 W/m2
02:39 50 °F 46 °F 29.60 in SE 9 mph 16 mph 85% 0.00 in 0 W/m2
02:44 50 °F 46 °F 29.60 in SE 8 mph 14 mph 85% 0.00 in 0 W/m2
02:49 50 °F 46 °F 29.60 in ESE 9 mph 17 mph 85% 0.00 in 0 W/m2
02:54 50 °F 46 °F 29.60 in ESE 10 mph 17 mph 85% 0.00 in 0 W/m2
02:59 50 °F 46 °F 29.59 in SE 10 mph 20 mph 85% 0.00 in 0 W/m2
03:04 50 °F 46 °F 29.59 in SE 9 mph 20 mph 85% 0.00 in 0 W/m2
03:09 51 °F 46 °F 29.59 in SE 9 mph 20 mph 85% 0.00 in 0 W/m2
03:14 51 °F 46 °F 29.59 in SSE 8 mph 20 mph 85% 0.00 in 0 W/m2
03:19 51 °F 46 °F 29.59 in SE 10 mph 20 mph 85% 0.00 in 0 W/m2
03:24 51 °F 47 °F 29.59 in SSE 11 mph 20 mph 85% 0.00 in 0 W/m2
03:29 51 °F 47 °F 29.59 in SSE 10 mph 18 mph 85% 0.00 in 0 W/m2
03:34 51 °F 47 °F 29.59 in SE 12 mph 17 mph 85% 0.00 in 0 W/m2
03:39 51 °F 47 °F 29.59 in SSE 12 mph 17 mph 85% 0.00 in 0 W/m2
03:44 52 °F 47 °F 29.59 in SSE 12 mph 21 mph 85% 0.00 in 0 W/m2
03:49 52 °F 47 °F 29.59 in SSE 11 mph 21 mph 85% 0.00 in 0 W/m2
03:54 52 °F 47 °F 29.59 in SSE 9 mph 20 mph 85% 0.00 in 0 W/m2
03:59 52 °F 47 °F 29.59 in SSE 10 mph 20 mph 85% 0.00 in 0 W/m2
04:04 51 °F 47 °F 29.59 in SSE 10 mph 20 mph 85% 0.00 in 0 W/m2
04:09 52 °F 47 °F 29.59 in SSE 11 mph 18 mph 85% 0.00 in 0 W/m2
04:14 52 °F 47 °F 29.58 in SSE 11 mph 22 mph 85% 0.00 in 0 W/m2
04:19 52 °F 47 °F 29.58 in SSE 9 mph 22 mph 85% 0.00 in 0 W/m2
04:24 51 °F 47 °F 29.58 in SSE 10 mph 20 mph 85% 0.00 in 0 W/m2
04:29 51 °F 47 °F 29.58 in SSE 11 mph 20 mph 85% 0.00 in 0 W/m2
04:34 52 °F 47 °F 29.57 in SE 11 mph 20 mph 85% 0.00 in 0 W/m2
04:39 52 °F 47 °F 29.57 in SSE 11 mph 20 mph 85% 0.00 in 0 W/m2
04:44 52 °F 48 °F 29.57 in SE 12 mph 25 mph 85% 0.00 in 0 W/m2
04:49 52 °F 48 °F 29.56 in SSE 11 mph 25 mph 85% 0.00 in 0 W/m2
04:54 52 °F 48 °F 29.56 in SSE 9 mph 22 mph 85% 0.00 in 0 W/m2
04:59 52 °F 48 °F 29.56 in SSE 10 mph 17 mph 85% 0.00 in 0 W/m2
05:04 52 °F 48 °F 29.56 in SSE 10 mph 20 mph 85% 0.00 in 0 W/m2
05:09 52 °F 48 °F 29.55 in SE 11 mph 24 mph 85% 0.00 in 0 W/m2
05:14 52 °F 48 °F 29.55 in SE 9 mph 24 mph 85% 0.00 in 0 W/m2
05:19 53 °F 49 °F 29.55 in SSE 10 mph 20 mph 86% 0.00 in 0 W/m2
05:24 53 °F 49 °F 29.55 in SSE 13 mph 21 mph 86% 0.00 in 0 W/m2
05:29 53 °F 49 °F 29.55 in SSE 12 mph 21 mph 86% 0.00 in 0 W/m2
05:34 53 °F 49 °F 29.55 in SE 12 mph 22 mph 86% 0.00 in 0 W/m2
05:39 53 °F 49 °F 29.55 in SSE 13 mph 26 mph 86% 0.00 in 0 W/m2
05:44 53 °F 49 °F 29.55 in SE 11 mph 26 mph 86% 0.00 in 0 W/m2
05:49 53 °F 49 °F 29.55 in SE 13 mph 24 mph 86% 0.00 in 0 W/m2
05:54 53 °F 49 °F 29.55 in SSE 13 mph 24 mph 86% 0.00 in 0 W/m2
05:59 53 °F 49 °F 29.55 in SSE 12 mph 23 mph 86% 0.00 in 0 W/m2
06:04 53 °F 49 °F 29.54 in SE 13 mph 21 mph 86% 0.00 in 0 W/m2
06:09 53 °F 49 °F 29.54 in SSE 11 mph 21 mph 86% 0.00 in 0 W/m2
06:14 53 °F 49 °F 29.54 in SE 11 mph 21 mph 86% 0.00 in 0 W/m2
06:19 53 °F 49 °F 29.54 in SSE 12 mph 22 mph 86% 0.00 in 0 W/m2
06:24 53 °F 49 °F 29.54 in SSE 12 mph 23 mph 86% 0.00 in 0 W/m2
06:29 53 °F 49 °F 29.54 in SSE 12 mph 23 mph 86% 0.00 in 0 W/m2
06:34 53 °F 49 °F 29.54 in SSE 12 mph 20 mph 86% 0.00 in 0 W/m2
06:39 53 °F 49 °F 29.54 in SSE 12 mph 21 mph 86% 0.00 in 0 W/m2
06:44 54 °F 50 °F 29.54 in SSE 13 mph 25 mph 86% 0.00 in 0 W/m2
06:49 54 °F 50 °F 29.54 in SSE 13 mph 25 mph 86% 0.00 in 0 W/m2
06:54 54 °F 50 °F 29.54 in SSE 12 mph 25 mph 86% 0.00 in 0 W/m2
06:59 54 °F 50 °F 29.54 in SSE 12 mph 25 mph 86% 0.00 in 0 W/m2
07:04 54 °F 50 °F 29.53 in SSE 11 mph 21 mph 86% 0.00 in 0 W/m2
07:09 53 °F 49 °F 29.53 in SSE 11 mph 16 mph 86% 0.00 in 0 W/m2
07:14 53 °F 49 °F 29.53 in SSE 12 mph 18 mph 85% 0.00 in 5 W/m2
07:19 53 °F 48 °F 29.52 in SE 10 mph 18 mph 85% 0.00 in 16 W/m2
07:24 53 °F 48 °F 29.53 in SSE 11 mph 18 mph 85% 0.00 in 23 W/m2
07:29 52 °F 48 °F 29.53 in SSE 12 mph 20 mph 85% 0.00 in 28 W/m2
07:34 52 °F 48 °F 29.52 in SSE 11 mph 22 mph 85% 0.00 in 28 W/m2
07:39 52 °F 48 °F 29.52 in SSE 11 mph 22 mph 85% 0.00 in 33 W/m2
07:44 52 °F 48 °F 29.52 in SSE 10 mph 22 mph 85% 0.00 in 44 W/m2
07:49 52 °F 48 °F 29.52 in SE 12 mph 22 mph 85% 0.00 in 44 W/m2
07:54 52 °F 48 °F 29.52 in SSE 12 mph 24 mph 85% 0.00 in 46 W/m2
07:59 52 °F 48 °F 29.52 in SSE 13 mph 24 mph 85% 0.00 in 49 W/m2
08:04 52 °F 48 °F 29.52 in SSE 11 mph 22 mph 85% 0.00 in 39 W/m2
08:09 52 °F 48 °F 29.51 in SSE 12 mph 20 mph 85% 0.00 in 37 W/m2
08:14 52 °F 48 °F 29.50 in SSE 10 mph 20 mph 85% 0.00 in 28 W/m2
08:19 52 °F 48 °F 29.49 in SSE 11 mph 21 mph 84% 0.00 in 26 W/m2
08:24 52 °F 48 °F 29.50 in SSE 12 mph 21 mph 84% 0.00 in 35 W/m2
08:29 52 °F 48 °F 29.50 in SSE 12 mph 23 mph 84% 0.00 in 32 W/m2
08:34 52 °F 47 °F 29.51 in SSE 14 mph 23 mph 84% 0.00 in 19 W/m2
08:39 52 °F 48 °F 29.51 in SSE 12 mph 24 mph 84% 0.00 in 12 W/m2
08:44 52 °F 47 °F 29.50 in SSE 12 mph 25 mph 83% 0.00 in 14 W/m2
08:49 52 °F 47 °F 29.50 in SE 14 mph 25 mph 83% 0.00 in 39 W/m2
08:54 52 °F 47 °F 29.50 in SE 11 mph 22 mph 83% 0.00 in 47 W/m2
08:59 52 °F 47 °F 29.50 in SSE 10 mph 23 mph 83% 0.00 in 62 W/m2
09:04 53 °F 47 °F 29.50 in SSE 10 mph 23 mph 83% 0.00 in 54 W/m2
09:09 53 °F 48 °F 29.50 in SSE 11 mph 21 mph 83% 0.00 in 67 W/m2
09:14 53 °F 48 °F 29.48 in SSE 12 mph 21 mph 83% 0.00 in 84 W/m2
09:19 53 °F 48 °F 29.49 in SSE 13 mph 23 mph 82% 0.00 in 76 W/m2
09:24 53 °F 48 °F 29.48 in SSE 14 mph 24 mph 81% 0.00 in 118 W/m2
09:29 54 °F 48 °F 29.48 in SSE 14 mph 26 mph 80% 0.00 in 95 W/m2
09:34 54 °F 48 °F 29.48 in SSE 13 mph 26 mph 80% 0.00 in 125 W/m2
09:39 55 °F 48 °F 29.48 in SSE 11 mph 22 mph 79% 0.00 in 149 W/m2
09:44 55 °F 49 °F 29.47 in SSE 13 mph 22 mph 79% 0.00 in 160 W/m2
09:49 55 °F 49 °F 29.47 in SSE 14 mph 22 mph 80% 0.00 in 109 W/m2
09:54 55 °F 50 °F 29.47 in SE 13 mph 29 mph 81% 0.00 in 185 W/m2
09:59 56 °F 50 °F 29.46 in SE 14 mph 29 mph 80% 0.00 in 158 W/m2
10:04 56 °F 50 °F 29.46 in SE 13 mph 25 mph 81% 0.00 in 69 W/m2
10:09 55 °F 50 °F 29.47 in SSE 14 mph 25 mph 81% 0.00 in 151 W/m2
10:14 55 °F 50 °F 29.46 in SE 12 mph 24 mph 81% 0.00 in 163 W/m2
10:19 56 °F 50 °F 29.45 in SSE 15 mph 32 mph 81% 0.00 in 306 W/m2
10:24 57 °F 51 °F 29.45 in SSE 14 mph 32 mph 81% 0.00 in 306 W/m2
10:29 57 °F 51 °F 29.45 in SE 14 mph 33 mph 80% 0.00 in 323 W/m2
10:34 57 °F 51 °F 29.44 in SSE 13 mph 33 mph 79% 0.00 in 299 W/m2
10:39 57 °F 51 °F 29.43 in SSE 16 mph 29 mph 79% 0.00 in 114 W/m2
10:44 57 °F 50 °F 29.43 in SSE 16 mph 29 mph 79% 0.00 in 200 W/m2
10:49 57 °F 50 °F 29.42 in SE 13 mph 28 mph 79% 0.00 in 134 W/m2
10:54 57 °F 50 °F 29.41 in SSE 14 mph 24 mph 79% 0.00 in 42 W/m2
10:59 57 °F 51 °F 29.42 in SSE 16 mph 25 mph 80% 0.02 in 132 W/m2
11:04 57 °F 51 °F 29.41 in SSE 17 mph 28 mph 81% 0.03 in 301 W/m2
11:09 57 °F 52 °F 29.41 in SSE 13 mph 28 mph 83% 0.03 in 288 W/m2
11:14 57 °F 52 °F 29.41 in SSE 15 mph 28 mph 84% 0.03 in 288 W/m2
11:19 57 °F 52 °F 29.41 in SSE 16 mph 28 mph 83% 0.03 in 118 W/m2
11:24 57 °F 52 °F 29.42 in SE 15 mph 28 mph 83% 0.03 in 172 W/m2
11:29 57 °F 52 °F 29.42 in SSE 16 mph 29 mph 83% 0.03 in 62 W/m2
11:34 57 °F 52 °F 29.42 in SSE 16 mph 29 mph 83% 0.03 in 163 W/m2
11:39 57 °F 52 °F 29.41 in SSE 14 mph 28 mph 83% 0.03 in 130 W/m2
11:44 57 °F 52 °F 29.41 in SSE 15 mph 25 mph 83% 0.03 in 192 W/m2
11:49 58 °F 52 °F 29.41 in SSE 17 mph 30 mph 83% 0.03 in 283 W/m2
11:54 58 °F 53 °F 29.40 in SSE 14 mph 30 mph 82% 0.03 in 269 W/m2
11:59 59 °F 54 °F 29.39 in SSE 15 mph 26 mph 82% 0.03 in 381 W/m2
12:04 60 °F 54 °F 29.39 in SSE 17 mph 28 mph 81% 0.03 in 427 W/m2
12:09 61 °F 55 °F 29.38 in SSE 13 mph 28 mph 80% 0.01 in 684 W/m2
12:14 62 °F 55 °F 29.38 in SSE 13 mph 30 mph 78% 0.00 in 684 W/m2
12:19 62 °F 55 °F 29.38 in SSE 15 mph 30 mph 77% 0.00 in 355 W/m2
12:24 62 °F 55 °F 29.37 in SSE 13 mph 24 mph 77% 0.00 in 381 W/m2
12:29 62 °F 54 °F 29.37 in SSE 14 mph 25 mph 76% 0.00 in 264 W/m2
12:34 62 °F 54 °F 29.36 in SSE 16 mph 29 mph 75% 0.00 in 415 W/m2
12:39 63 °F 55 °F 29.36 in SSE 16 mph 35 mph 74% 0.00 in 422 W/m2
12:44 64 °F 56 °F 29.35 in SSE 19 mph 35 mph 73% 0.00 in 483 W/m2
12:49 65 °F 56 °F 29.34 in SSE 19 mph 30 mph 73% 0.00 in 861 W/m2
12:54 65 °F 56 °F 29.34 in SSE 18 mph 32 mph 72% 0.00 in 861 W/m2
12:59 66 °F 56 °F 29.34 in SSE 19 mph 32 mph 72% 0.00 in 990 W/m2
13:04 66 °F 56 °F 29.33 in SSE 19 mph 33 mph 69% 0.00 in 990 W/m2
13:09 65 °F 55 °F 29.32 in SSE 21 mph 33 mph 68% 0.00 in 199 W/m2
13:14 64 °F 55 °F 29.32 in South 17 mph 30 mph 71% 0.00 in 53 W/m2
13:19 63 °F 55 °F 29.32 in SSE 13 mph 25 mph 75% 0.07 in 21 W/m2
13:24 61 °F 55 °F 29.32 in SSE 17 mph 26 mph 79% 0.08 in 132 W/m2
13:29 61 °F 54 °F 29.32 in South 20 mph 30 mph 78% 0.08 in 225 W/m2
13:34 60 °F 53 °F 29.31 in SSW 17 mph 30 mph 77% 0.08 in 148 W/m2
13:39 60 °F 53 °F 29.31 in South 17 mph 29 mph 78% 0.09 in 183 W/m2
13:44 60 °F 53 °F 29.33 in SSW 16 mph 31 mph 79% 0.13 in 172 W/m2
13:49 59 °F 51 °F 29.33 in SW 19 mph 31 mph 75% 0.14 in 114 W/m2
13:54 58 °F 50 °F 29.32 in SW 18 mph 32 mph 74% 0.18 in 84 W/m2
13:59 57 °F 50 °F 29.32 in SW 16 mph 32 mph 77% 0.19 in 304 W/m2
14:04 57 °F 51 °F 29.32 in SW 16 mph 29 mph 79% 0.19 in 360 W/m2
14:09 58 °F 52 °F 29.32 in SW 20 mph 30 mph 79% 0.19 in 508 W/m2
14:14 59 °F 51 °F 29.32 in SW 24 mph 37 mph 76% 0.19 in 292 W/m2
14:19 59 °F 52 °F 29.32 in WSW 19 mph 37 mph 75% 0.19 in 227 W/m2
14:24 60 °F 52 °F 29.32 in SW 20 mph 32 mph 74% 0.19 in 823 W/m2
14:29 60 °F 52 °F 29.32 in SW 20 mph 30 mph 73% 0.12 in 367 W/m2
14:34 61 °F 52 °F 29.32 in SW 22 mph 36 mph 72% 0.11 in 770 W/m2
14:39 62 °F 52 °F 29.32 in SW 23 mph 37 mph 68% 0.11 in 700 W/m2
14:44 62 °F 49 °F 29.33 in WSW 25 mph 39 mph 61% 0.11 in 649 W/m2
14:49 61 °F 47 °F 29.34 in SW 29 mph 40 mph 58% 0.10 in 635 W/m2
14:54 61 °F 47 °F 29.34 in SW 26 mph 40 mph 59% 0.06 in 717 W/m2
14:59 61 °F 47 °F 29.35 in WSW 21 mph 38 mph 59% 0.05 in 638 W/m2
15:04 60 °F 45 °F 29.35 in SW 23 mph 38 mph 57% 0.01 in 647 W/m2
15:09 60 °F 44 °F 29.36 in WSW 24 mph 38 mph 55% 0.00 in 343 W/m2
15:14 58 °F 43 °F 29.37 in WSW 27 mph 41 mph 55% 0.00 in 276 W/m2
15:19 58 °F 42 °F 29.37 in SW 24 mph 41 mph 56% 0.00 in 265 W/m2
15:24 57 °F 42 °F 29.38 in SW 26 mph 41 mph 56% 0.00 in 239 W/m2
15:29 57 °F 42 °F 29.38 in WSW 23 mph 39 mph 56% 0.00 in 543 W/m2
15:34 56 °F 40 °F 29.39 in WSW 24 mph 39 mph 55% 0.00 in 501 W/m2
15:39 56 °F 40 °F 29.40 in WSW 19 mph 39 mph 55% 0.00 in 294 W/m2
15:44 55 °F 40 °F 29.40 in WSW 21 mph 43 mph 56% 0.00 in 278 W/m2
15:49 55 °F 39 °F 29.41 in WSW 21 mph 43 mph 54% 0.00 in 366 W/m2
15:54 55 °F 39 °F 29.41 in WSW 22 mph 33 mph 55% 0.00 in 313 W/m2
15:59 54 °F 39 °F 29.42 in WSW 21 mph 38 mph 55% 0.00 in 264 W/m2
16:04 54 °F 39 °F 29.42 in WSW 26 mph 39 mph 55% 0.00 in 332 W/m2
16:09 54 °F 40 °F 29.42 in WSW 25 mph 39 mph 60% 0.00 in 406 W/m2
16:14 54 °F 41 °F 29.43 in WSW 20 mph 40 mph 61% 0.00 in 378 W/m2
16:19 54 °F 41 °F 29.43 in WSW 22 mph 40 mph 62% 0.00 in 297 W/m2
16:24 53 °F 41 °F 29.43 in WSW 24 mph 35 mph 62% 0.00 in 218 W/m2
16:29 53 °F 41 °F 29.43 in WSW 25 mph 39 mph 62% 0.00 in 134 W/m2
16:34 53 °F 40 °F 29.44 in WSW 25 mph 43 mph 62% 0.00 in 165 W/m2
16:39 52 °F 40 °F 29.44 in WSW 23 mph 43 mph 62% 0.00 in 272 W/m2
16:44 52 °F 39 °F 29.44 in WSW 25 mph 43 mph 62% 0.00 in 272 W/m2
16:49 52 °F 40 °F 29.45 in WSW 19 mph 43 mph 63% 0.00 in 221 W/m2
16:54 51 °F 39 °F 29.45 in WSW 24 mph 35 mph 63% 0.00 in 221 W/m2
16:59 51 °F 39 °F 29.46 in WSW 26 mph 41 mph 63% 0.00 in 134 W/m2
17:04 50 °F 38 °F 29.46 in WSW 26 mph 41 mph 63% 0.00 in 72 W/m2
17:09 50 °F 38 °F 29.47 in WSW 24 mph 41 mph 64% 0.00 in 76 W/m2
17:14 50 °F 38 °F 29.47 in WSW 25 mph 40 mph 64% 0.00 in 107 W/m2
17:19 49 °F 38 °F 29.48 in WSW 20 mph 40 mph 65% 0.00 in 83 W/m2
17:24 49 °F 38 °F 29.48 in SW 22 mph 39 mph 65% 0.00 in 58 W/m2
17:29 49 °F 38 °F 29.48 in WSW 21 mph 37 mph 66% 0.00 in 72 W/m2
17:34 49 °F 38 °F 29.48 in SW 22 mph 37 mph 67% 0.00 in 95 W/m2
17:39 49 °F 38 °F 29.48 in SW 23 mph 37 mph 66% 0.00 in 74 W/m2
17:44 48 °F 38 °F 29.48 in WSW 26 mph 40 mph 66% 0.00 in 37 W/m2
17:49 48 °F 37 °F 29.49 in SW 27 mph 40 mph 66% 0.00 in 28 W/m2
17:54 48 °F 37 °F 29.49 in SW 23 mph 39 mph 65% 0.00 in 60 W/m2
17:59 48 °F 37 °F 29.49 in WSW 29 mph 48 mph 65% 0.00 in 90 W/m2
18:04 47 °F 37 °F 29.49 in WSW 23 mph 48 mph 66% 0.00 in 97 W/m2
18:09 47 °F 37 °F 29.50 in WSW 27 mph 38 mph 66% 0.00 in 91 W/m2
18:14 47 °F 37 °F 29.50 in WSW 20 mph 39 mph 67% 0.00 in 28 W/m2
18:19 47 °F 37 °F 29.51 in SW 22 mph 39 mph 68% 0.00 in 14 W/m2
18:24 47 °F 37 °F 29.52 in WSW 20 mph 35 mph 68% 0.00 in 7 W/m2
18:29 46 °F 37 °F 29.52 in WSW 17 mph 35 mph 68% 0.00 in 5 W/m2
18:34 46 °F 37 °F 29.51 in WSW 22 mph 33 mph 69% 0.00 in 0 W/m2
18:39 46 °F 36 °F 29.52 in WSW 23 mph 38 mph 69% 0.00 in 0 W/m2
18:44 46 °F 36 °F 29.52 in SW 19 mph 38 mph 69% 0.00 in 0 W/m2
18:49 46 °F 36 °F 29.52 in SW 20 mph 30 mph 69% 0.00 in 0 W/m2
18:54 46 °F 36 °F 29.53 in WSW 17 mph 29 mph 70% 0.00 in 0 W/m2
18:59 45 °F 36 °F 29.53 in WSW 17 mph 28 mph 70% 0.00 in 0 W/m2
19:04 45 °F 37 °F 29.53 in SW 16 mph 32 mph 71% 0.00 in 0 W/m2
19:09 45 °F 36 °F 29.53 in SW 20 mph 35 mph 71% 0.00 in 0 W/m2
19:14 45 °F 36 °F 29.54 in SW 19 mph 36 mph 71% 0.00 in 0 W/m2
19:19 45 °F 36 °F 29.54 in SW 18 mph 36 mph 71% 0.00 in 0 W/m2
19:24 45 °F 36 °F 29.54 in SW 20 mph 32 mph 71% 0.00 in 0 W/m2
19:29 45 °F 36 °F 29.55 in SW 17 mph 32 mph 71% 0.00 in 0 W/m2
19:34 45 °F 36 °F 29.55 in SW 19 mph 31 mph 71% 0.00 in 0 W/m2
19:39 45 °F 36 °F 29.55 in SW 15 mph 31 mph 71% 0.00 in 0 W/m2
19:44 45 °F 36 °F 29.56 in SW 21 mph 33 mph 71% 0.00 in 0 W/m2
19:49 45 °F 36 °F 29.56 in SW 17 mph 33 mph 71% 0.00 in 0 W/m2
19:54 44 °F 36 °F 29.56 in SW 16 mph 32 mph 72% 0.00 in 0 W/m2
19:59 44 °F 36 °F 29.57 in SW 16 mph 26 mph 72% 0.00 in 0 W/m2
20:04 44 °F 36 °F 29.57 in WSW 17 mph 26 mph 72% 0.00 in 0 W/m2
20:09 44 °F 36 °F 29.57 in SW 17 mph 28 mph 72% 0.00 in 0 W/m2
20:14 44 °F 36 °F 29.58 in SW 15 mph 28 mph 72% 0.00 in 0 W/m2
20:19 44 °F 36 °F 29.58 in SW 16 mph 26 mph 72% 0.00 in 0 W/m2
20:24 44 °F 36 °F 29.58 in SW 18 mph 25 mph 72% 0.00 in 0 W/m2
20:29 44 °F 36 °F 29.58 in SW 17 mph 25 mph 72% 0.00 in 0 W/m2
20:34 44 °F 35 °F 29.58 in SW 19 mph 29 mph 73% 0.00 in 0 W/m2
20:39 44 °F 35 °F 29.58 in SW 19 mph 30 mph 72% 0.00 in 0 W/m2
20:44 43 °F 35 °F 29.59 in WSW 20 mph 33 mph 72% 0.00 in 0 W/m2
20:49 43 °F 35 °F 29.59 in WSW 24 mph 38 mph 72% 0.00 in 0 W/m2
20:54 43 °F 35 °F 29.59 in WSW 18 mph 38 mph 73% 0.00 in 0 W/m2
20:59 43 °F 35 °F 29.60 in WSW 19 mph 31 mph 74% 0.00 in 0 W/m2
21:04 42 °F 35 °F 29.60 in WSW 15 mph 28 mph 75% 0.00 in 0 W/m2
21:09 42 °F 35 °F 29.60 in WSW 16 mph 28 mph 76% 0.00 in 0 W/m2
21:14 41 °F 35 °F 29.61 in WSW 16 mph 28 mph 77% 0.00 in 0 W/m2
21:19 41 °F 34 °F 29.61 in WSW 17 mph 26 mph 78% 0.00 in 0 W/m2
21:24 41 °F 35 °F 29.61 in SW 17 mph 28 mph 79% 0.01 in 0 W/m2
21:29 41 °F 34 °F 29.61 in SW 19 mph 28 mph 78% 0.01 in 0 W/m2
21:34 41 °F 34 °F 29.61 in SW 20 mph 29 mph 76% 0.01 in 0 W/m2
21:39 41 °F 34 °F 29.61 in SW 18 mph 30 mph 76% 0.01 in 0 W/m2
21:44 41 °F 33 °F 29.61 in WSW 21 mph 31 mph 75% 0.01 in 0 W/m2
21:49 41 °F 33 °F 29.61 in SW 17 mph 31 mph 75% 0.01 in 0 W/m2
21:54 41 °F 33 °F 29.62 in SW 17 mph 28 mph 75% 0.01 in 0 W/m2
21:59 41 °F 33 °F 29.62 in SW 18 mph 28 mph 74% 0.01 in 0 W/m2
22:04 41 °F 33 °F 29.62 in WSW 16 mph 28 mph 74% 0.01 in 0 W/m2
22:09 41 °F 33 °F 29.62 in SW 20 mph 28 mph 74% 0.01 in 0 W/m2
22:14 41 °F 33 °F 29.62 in WSW 18 mph 28 mph 74% 0.01 in 0 W/m2
22:19 41 °F 33 °F 29.62 in SW 20 mph 30 mph 73% 0.01 in 0 W/m2
22:24 41 °F 33 °F 29.63 in SW 21 mph 30 mph 73% 0.01 in 0 W/m2
22:29 41 °F 33 °F 29.63 in SW 18 mph 29 mph 73% 0.01 in 0 W/m2
22:34 41 °F 33 °F 29.63 in SW 20 mph 33 mph 73% 0.00 in 0 W/m2
22:39 41 °F 33 °F 29.63 in SW 17 mph 33 mph 73% 0.00 in 0 W/m2
22:44 41 °F 33 °F 29.63 in SW 21 mph 29 mph 73% 0.00 in 0 W/m2
22:49 41 °F 33 °F 29.64 in SW 24 mph 36 mph 73% 0.00 in 0 W/m2
22:54 41 °F 33 °F 29.64 in SW 21 mph 36 mph 73% 0.00 in 0 W/m2
22:59 41 °F 33 °F 29.64 in SW 20 mph 33 mph 73% 0.00 in 0 W/m2
23:04 40 °F 33 °F 29.64 in SW 19 mph 33 mph 74% 0.00 in 0 W/m2
23:09 40 °F 33 °F 29.64 in SW 19 mph 30 mph 74% 0.00 in 0 W/m2
23:14 40 °F 33 °F 29.64 in SW 16 mph 30 mph 74% 0.00 in 0 W/m2
23:19 40 °F 33 °F 29.64 in SW 16 mph 29 mph 74% 0.00 in 0 W/m2
23:24 40 °F 33 °F 29.64 in SW 16 mph 29 mph 74% 0.00 in 0 W/m2
23:29 40 °F 33 °F 29.64 in SW 16 mph 29 mph 74% 0.00 in 0 W/m2
23:34 40 °F 33 °F 29.64 in SW 18 mph 30 mph 74% 0.00 in 0 W/m2
23:39 40 °F 33 °F 29.65 in SW 18 mph 30 mph 74% 0.00 in 0 W/m2
23:44 40 °F 33 °F 29.65 in SW 18 mph 30 mph 74% 0.00 in 0 W/m2
23:49 40 °F 33 °F 29.65 in SW 17 mph 26 mph 74% 0.00 in 0 W/m2
23:54 40 °F 33 °F 29.65 in SW 16 mph 31 mph 74% 0.00 in 0 W/m2
23:59 40 °F 33 °F 29.65 in SW 15 mph 31 mph 74% 0.00 in 0 W/m2
Peotne Weather
Compliments of Weather Underground - 4 mb